Time,TemperatureF,DewpointF,PressureIn,WindDirection,WindDirectionDegrees,WindSpeedMPH,WindSpeedGustMPH,Humidity,HourlyPrecipIn,Conditions,Clouds,dailyrainin,SoftwareType,DateUTC
2013-03-09 00:04:00,24.6,23.9,21.41,North,0,0.0,0.0,97,0.00,,---,0.00,VWS V14.01,2013-03-09 07:04:00,
2013-03-09 00:09:00,24.8,24.1,21.41,North,0,0.0,0.0,97,0.00,,---,0.00,VWS V14.01,2013-03-09 07:09:00,
2013-03-09 00:14:00,25.0,24.2,21.41,North,0,0.0,0.0,97,0.00,,---,0.00,VWS V14.01,2013-03-09 07:14:00,
2013-03-09 00:19:00,25.0,24.2,21.41,North,0,0.0,0.0,97,0.00,,---,0.00,VWS V14.01,2013-03-09 07:19:00,
2013-03-09 00:24:00,25.0,24.2,21.41,North,0,0.0,0.0,97,0.00,,---,0.00,VWS V14.01,2013-03-09 07:24:00,
2013-03-09 00:29:00,25.3,24.6,21.41,North,0,0.0,0.0,97,0.00,,---,0.00,VWS V14.01,2013-03-09 07:29:00,
2013-03-09 00:34:00,25.0,24.2,21.41,North,0,0.0,0.0,97,0.00,,---,0.00,VWS V14.01,2013-03-09 07:34:00,
2013-03-09 00:39:00,24.8,24.1,21.41,North,0,0.0,0.0,97,0.00,,---,0.00,VWS V14.01,2013-03-09 07:39:00,
2013-03-09 00:44:00,24.3,23.3,21.41,North,0,0.0,0.0,96,0.00,,---,0.00,VWS V14.01,2013-03-09 07:44:00,
2013-03-09 00:49:00,23.9,22.9,21.41,North,0,0.0,0.0,96,0.00,,---,0.00,VWS V14.01,2013-03-09 07:49:00,
2013-03-09 00:54:00,24.1,23.1,21.41,North,0,0.0,0.0,96,0.00,,---,0.00,VWS V14.01,2013-03-09 07:54:00,
2013-03-09 00:59:00,24.3,23.3,21.41,North,0,0.0,0.0,96,0.00,,---,0.00,VWS V14.01,2013-03-09 07:59:00,
2013-03-09 01:04:00,24.4,23.5,21.41,North,0,0.0,0.0,96,0.00,,---,0.00,VWS V14.01,2013-03-09 08:04:00,
2013-03-09 01:09:00,24.4,23.5,21.41,North,0,0.0,0.0,96,0.00,,---,0.00,VWS V14.01,2013-03-09 08:09:00,
2013-03-09 01:15:00,24.4,23.7,21.41,North,0,0.0,0.0,97,0.00,,---,0.00,VWS V14.01,2013-03-09 08:15:00,
2013-03-09 01:20:00,24.3,23.5,21.41,North,0,0.0,0.0,97,0.00,,---,0.00,VWS V14.01,2013-03-09 08:20:00,
2013-03-09 01:25:00,24.4,23.7,21.41,North,0,0.0,0.0,97,0.00,,---,0.00,VWS V14.01,2013-03-09 08:25:00,
2013-03-09 01:30:00,24.3,23.5,21.41,North,0,0.0,0.0,97,0.00,,---,0.00,VWS V14.01,2013-03-09 08:30:00,
2013-03-09 01:35:00,24.3,23.5,21.41,North,0,0.0,0.0,97,0.00,,---,0.00,VWS V14.01,2013-03-09 08:35:00,
2013-03-09 01:40:00,24.3,23.5,21.41,North,0,0.0,0.0,97,0.00,,---,0.00,VWS V14.01,2013-03-09 08:40:00,
2013-03-09 01:45:00,24.4,23.7,21.38,North,0,0.0,0.0,97,0.00,,---,0.00,VWS V14.01,2013-03-09 08:45:00,
2013-03-09 01:50:00,24.4,23.7,21.38,North,0,0.0,0.0,97,0.00,,---,0.00,VWS V14.01,2013-03-09 08:50:00,
2013-03-09 01:55:00,24.6,23.9,21.38,North,0,0.0,0.0,97,0.00,,---,0.00,VWS V14.01,2013-03-09 08:55:00,
2013-03-09 02:00:00,24.6,23.9,21.38,North,0,0.0,0.0,97,0.00,,---,0.00,VWS V14.01,2013-03-09 09:00:00,
2013-03-09 02:05:00,24.8,24.1,21.38,North,0,0.0,0.0,97,0.00,,---,0.00,VWS V14.01,2013-03-09 09:05:00,
2013-03-09 02:10:00,25.0,24.0,21.38,North,0,0.0,0.0,96,0.00,,---,0.00,VWS V14.01,2013-03-09 09:10:00,
2013-03-09 02:15:00,24.8,24.1,21.38,North,0,0.0,0.0,97,0.00,,---,0.00,VWS V14.01,2013-03-09 09:15:00,
2013-03-09 02:21:00,24.8,23.8,21.38,North,0,0.0,0.0,96,0.00,,---,0.00,VWS V14.01,2013-03-09 09:21:00,
2013-03-09 02:26:00,24.8,23.8,21.38,North,0,0.0,0.0,96,0.00,,---,0.00,VWS V14.01,2013-03-09 09:26:00,
2013-03-09 02:31:00,25.2,24.2,21.38,North,0,0.0,0.0,96,0.00,,---,0.00,VWS V14.01,2013-03-09 09:31:00,
2013-03-09 02:36:00,25.3,24.1,21.38,North,0,0.0,0.0,95,0.00,,---,0.00,VWS V14.01,2013-03-09 09:36:00,
2013-03-09 02:41:00,25.3,24.4,21.38,North,0,0.0,0.0,96,0.00,,---,0.00,VWS V14.01,2013-03-09 09:41:00,
2013-03-09 02:46:00,25.7,24.7,21.38,North,0,0.0,0.0,96,0.00,,---,0.00,VWS V14.01,2013-03-09 09:46:00,
2013-03-09 02:51:00,26.1,25.1,21.38,North,0,0.0,0.0,96,0.00,,---,0.00,VWS V14.01,2013-03-09 09:51:00,
2013-03-09 02:56:00,26.4,25.4,21.38,North,0,0.0,0.0,96,0.00,,---,0.00,VWS V14.01,2013-03-09 09:56:00,
2013-03-09 03:01:00,26.4,25.4,21.38,North,0,0.0,0.0,96,0.00,,---,0.00,VWS V14.01,2013-03-09 10:01:00,
2013-03-09 03:06:00,26.4,25.4,21.38,North,0,0.0,0.0,96,0.00,,---,0.00,VWS V14.01,2013-03-09 10:06:00,
2013-03-09 03:11:00,26.2,25.3,21.38,North,0,0.0,0.0,96,0.00,,---,0.00,VWS V14.01,2013-03-09 10:11:00,
2013-03-09 03:16:00,26.2,25.3,21.38,North,0,0.0,0.0,96,0.00,,---,0.00,VWS V14.01,2013-03-09 10:16:00,
2013-03-09 03:21:00,26.2,25.3,21.38,North,0,0.0,0.0,96,0.00,,---,0.00,VWS V14.01,2013-03-09 10:21:00,
2013-03-09 03:27:00,26.2,25.3,21.38,North,0,0.0,0.0,96,0.00,,---,0.00,VWS V14.01,2013-03-09 10:27:00,
2013-03-09 03:32:00,26.4,25.4,21.38,North,0,0.0,0.0,96,0.00,,---,0.00,VWS V14.01,2013-03-09 10:32:00,
2013-03-09 03:37:00,26.4,25.4,21.38,North,0,0.0,0.0,96,0.00,,---,0.00,VWS V14.01,2013-03-09 10:37:00,
2013-03-09 03:42:00,26.6,25.6,21.38,North,0,0.0,0.0,96,0.00,,---,0.00,VWS V14.01,2013-03-09 10:42:00,
2013-03-09 03:47:00,26.8,25.8,21.38,North,0,0.0,0.0,96,0.00,,---,0.00,VWS V14.01,2013-03-09 10:47:00,
2013-03-09 03:52:00,26.8,25.8,21.38,North,0,0.0,0.0,96,0.00,,---,0.00,VWS V14.01,2013-03-09 10:52:00,
2013-03-09 03:57:00,27.0,26.0,21.38,North,0,0.0,0.0,96,0.00,,---,0.00,VWS V14.01,2013-03-09 10:57:00,
2013-03-09 04:02:00,27.0,26.0,21.38,North,0,0.0,0.0,96,0.00,,---,0.00,VWS V14.01,2013-03-09 11:02:00,
2013-03-09 04:07:00,27.1,26.4,21.38,North,0,0.0,0.0,97,0.00,,---,0.00,VWS V14.01,2013-03-09 11:07:00,
2013-03-09 04:12:00,27.1,26.4,21.38,North,0,0.0,0.0,97,0.00,,---,0.00,VWS V14.01,2013-03-09 11:12:00,
2013-03-09 04:17:00,27.1,26.4,21.38,North,0,0.0,0.0,97,0.00,,---,0.00,VWS V14.01,2013-03-09 11:17:00,
2013-03-09 04:22:00,27.1,26.4,21.38,North,0,0.0,0.0,97,0.00,,---,0.00,VWS V14.01,2013-03-09 11:22:00,
2013-03-09 04:27:00,27.0,26.2,21.38,North,0,0.0,0.0,97,0.00,,---,0.00,VWS V14.01,2013-03-09 11:27:00,
2013-03-09 04:32:00,27.0,26.2,21.38,North,0,0.0,0.0,97,0.00,,---,0.00,VWS V14.01,2013-03-09 11:32:00,
2013-03-09 04:37:00,27.0,26.2,21.38,North,0,0.0,0.0,97,0.00,,---,0.00,VWS V14.01,2013-03-09 11:37:00,
2013-03-09 04:42:00,26.8,26.0,21.38,North,0,0.0,0.0,97,0.00,,---,0.00,VWS V14.01,2013-03-09 11:42:00,
2013-03-09 04:47:00,26.8,26.0,21.38,North,0,0.0,0.0,97,0.00,,---,0.00,VWS V14.01,2013-03-09 11:47:00,
2013-03-09 04:52:00,26.8,26.0,21.38,North,0,0.0,0.0,97,0.00,,---,0.00,VWS V14.01,2013-03-09 11:52:00,
2013-03-09 04:57:00,26.8,26.0,21.38,North,0,0.0,0.0,97,0.00,,---,0.00,VWS V14.01,2013-03-09 11:57:00,
2013-03-09 05:02:00,26.8,26.0,21.38,North,0,0.0,0.0,97,0.00,,---,0.00,VWS V14.01,2013-03-09 12:02:00,
2013-03-09 05:07:00,26.8,26.0,21.38,North,0,0.0,0.0,97,0.00,,---,0.00,VWS V14.01,2013-03-09 12:07:00,
2013-03-09 05:12:00,26.8,26.0,21.38,North,0,0.0,0.0,97,0.00,,---,0.00,VWS V14.01,2013-03-09 12:12:00,
2013-03-09 05:17:00,27.0,26.5,21.38,North,0,0.0,0.0,98,0.00,,---,0.00,VWS V14.01,2013-03-09 12:17:00,
2013-03-09 05:22:00,27.0,26.5,21.38,North,0,0.0,0.0,98,0.00,,---,0.00,VWS V14.01,2013-03-09 12:22:00,
2013-03-09 05:27:00,27.0,26.5,21.38,North,0,0.0,0.0,98,0.00,,---,0.00,VWS V14.01,2013-03-09 12:27:00,
2013-03-09 05:32:00,27.0,26.5,21.38,North,0,0.0,0.0,98,0.00,,---,0.00,VWS V14.01,2013-03-09 12:32:00,
2013-03-09 05:37:00,27.0,26.5,21.38,North,0,0.0,0.0,98,0.00,,---,0.00,VWS V14.01,2013-03-09 12:37:00,
2013-03-09 05:42:00,27.0,26.5,21.38,North,0,0.0,0.0,98,0.00,,---,0.00,VWS V14.01,2013-03-09 12:42:00,
2013-03-09 05:47:00,27.0,26.5,21.38,North,0,0.0,0.0,98,0.00,,---,0.00,VWS V14.01,2013-03-09 12:47:00,
2013-03-09 05:52:00,27.0,26.5,21.38,North,0,0.0,0.0,98,0.00,,---,0.00,VWS V14.01,2013-03-09 12:52:00,
2013-03-09 05:57:00,27.0,26.5,21.38,North,0,0.0,0.0,98,0.00,,---,0.00,VWS V14.01,2013-03-09 12:57:00,
2013-03-09 06:05:00,27.0,26.5,21.38,North,0,0.0,0.0,98,0.00,,---,0.00,VWS V14.01,2013-03-09 13:05:00,
2013-03-09 06:10:00,27.0,26.5,21.38,North,0,0.0,0.0,98,0.00,,---,0.00,VWS V14.01,2013-03-09 13:10:00,
2013-03-09 06:15:00,26.8,26.3,21.38,North,0,0.0,0.0,98,0.00,,---,0.00,VWS V14.01,2013-03-09 13:15:00,
2013-03-09 06:20:00,26.8,26.3,21.38,North,0,0.0,0.0,98,0.00,,---,0.00,VWS V14.01,2013-03-09 13:20:00,
2013-03-09 06:25:00,26.6,26.1,21.38,North,0,0.0,0.0,98,0.00,,---,0.00,VWS V14.01,2013-03-09 13:25:00,
2013-03-09 06:30:00,26.2,25.8,21.41,North,0,0.0,0.0,98,0.00,,---,0.00,VWS V14.01,2013-03-09 13:30:00,
2013-03-09 06:35:00,25.9,25.4,21.41,North,0,0.0,0.0,98,0.00,,---,0.00,VWS V14.01,2013-03-09 13:35:00,
2013-03-09 06:40:00,25.5,25.0,21.41,North,0,0.0,0.0,98,0.00,,---,0.00,VWS V14.01,2013-03-09 13:40:00,
2013-03-09 06:45:00,25.2,24.7,21.41,North,0,0.0,0.0,98,0.00,,---,0.00,VWS V14.01,2013-03-09 13:45:00,
2013-03-09 06:50:00,24.8,24.3,21.41,North,0,0.0,0.0,98,0.00,,---,0.00,VWS V14.01,2013-03-09 13:50:00,
2013-03-09 06:55:00,24.8,24.3,21.41,North,0,0.0,0.0,98,0.00,,---,0.00,VWS V14.01,2013-03-09 13:55:00,
2013-03-09 07:01:00,24.6,23.9,21.41,North,0,0.0,0.0,97,0.00,,---,0.00,VWS V14.01,2013-03-09 14:01:00,
2013-03-09 07:06:00,24.6,23.9,21.41,North,0,0.0,0.0,97,0.00,,---,0.00,VWS V14.01,2013-03-09 14:06:00,
2013-03-09 07:11:00,24.6,23.9,21.41,North,0,0.0,0.0,97,0.00,,---,0.00,VWS V14.01,2013-03-09 14:11:00,
2013-03-09 07:16:00,24.8,24.1,21.41,North,0,0.0,0.0,97,0.00,,---,0.00,VWS V14.01,2013-03-09 14:16:00,
2013-03-09 07:21:00,24.8,24.1,21.41,North,0,0.0,0.0,97,0.00,,---,0.00,VWS V14.01,2013-03-09 14:21:00,
2013-03-09 07:26:00,25.0,24.2,21.41,North,0,0.0,0.0,97,0.00,,---,0.00,VWS V14.01,2013-03-09 14:26:00,
2013-03-09 07:31:00,25.0,24.2,21.41,North,0,0.0,0.0,97,0.00,,---,0.00,VWS V14.01,2013-03-09 14:31:00,
2013-03-09 07:36:00,25.2,24.2,21.41,North,0,0.0,0.0,96,0.00,,---,0.00,VWS V14.01,2013-03-09 14:36:00,
2013-03-09 07:41:00,25.2,24.2,21.41,North,0,0.0,0.0,96,0.00,,---,0.00,VWS V14.01,2013-03-09 14:41:00,
2013-03-09 07:46:00,25.3,24.4,21.41,North,0,0.0,0.0,96,0.00,,---,0.00,VWS V14.01,2013-03-09 14:46:00,
2013-03-09 07:51:00,25.3,24.4,21.41,North,0,0.0,0.0,96,0.00,,---,0.00,VWS V14.01,2013-03-09 14:51:00,
2013-03-09 07:56:00,25.3,24.4,21.41,North,0,0.0,0.0,96,0.00,,---,0.00,VWS V14.01,2013-03-09 14:56:00,
2013-03-09 08:01:00,25.5,24.5,21.41,North,0,0.0,0.0,96,0.00,,---,0.00,VWS V14.01,2013-03-09 15:01:00,
2013-03-09 08:06:00,25.5,24.5,21.41,North,0,0.0,0.0,96,0.00,,---,0.00,VWS V14.01,2013-03-09 15:06:00,
2013-03-09 08:11:00,25.3,24.1,21.41,North,0,0.0,0.0,95,0.00,,---,0.00,VWS V14.01,2013-03-09 15:11:00,
2013-03-09 08:16:00,25.2,23.9,21.41,North,0,0.0,0.0,95,0.00,,---,0.00,VWS V14.01,2013-03-09 15:16:00,
2013-03-09 08:21:00,25.2,23.7,21.41,North,0,0.0,0.0,94,0.00,,---,0.00,VWS V14.01,2013-03-09 15:21:00,
2013-03-09 08:26:00,25.2,23.4,21.41,North,0,0.0,0.0,93,0.00,,---,0.00,VWS V14.01,2013-03-09 15:26:00,
2013-03-09 08:31:00,25.2,23.4,21.41,North,0,0.0,0.0,93,0.00,,---,0.00,VWS V14.01,2013-03-09 15:31:00,
2013-03-09 08:36:00,25.3,23.4,21.41,North,0,0.0,0.0,92,0.00,,---,0.00,VWS V14.01,2013-03-09 15:36:00,
2013-03-09 08:41:00,25.3,23.1,21.41,North,0,0.0,0.0,91,0.00,,---,0.00,VWS V14.01,2013-03-09 15:41:00,
2013-03-09 08:46:00,25.5,23.3,21.41,North,0,0.0,0.0,91,0.00,,---,0.00,VWS V14.01,2013-03-09 15:46:00,
2013-03-09 08:51:00,25.5,23.0,21.41,North,0,0.0,0.0,90,0.00,,---,0.00,VWS V14.01,2013-03-09 15:51:00,
2013-03-09 08:56:00,25.5,23.0,21.41,North,0,0.0,0.0,90,0.00,,---,0.00,VWS V14.01,2013-03-09 15:56:00,
2013-03-09 09:01:00,25.7,23.2,21.41,North,0,0.0,0.0,90,0.00,,---,0.00,VWS V14.01,2013-03-09 16:01:00,
2013-03-09 09:06:00,25.3,22.6,21.41,North,0,0.0,0.0,89,0.00,,---,0.00,VWS V14.01,2013-03-09 16:06:00,
2013-03-09 09:11:00,25.2,22.1,21.41,North,0,0.0,0.0,88,0.00,,---,0.00,VWS V14.01,2013-03-09 16:11:00,
2013-03-09 09:16:00,25.3,22.3,21.41,North,0,0.0,0.0,88,0.00,,---,0.00,VWS V14.01,2013-03-09 16:16:00,
2013-03-09 09:21:00,25.2,21.8,21.41,North,0,0.0,0.0,87,0.00,,---,0.00,VWS V14.01,2013-03-09 16:21:00,
2013-03-09 09:26:00,25.3,21.8,21.41,North,0,0.0,0.0,86,0.00,,---,0.00,VWS V14.01,2013-03-09 16:26:00,
2013-03-09 09:31:00,25.2,21.3,21.44,NNW,338,0.0,0.0,85,0.00,,---,0.00,VWS V14.01,2013-03-09 16:31:00,
2013-03-09 09:36:00,25.2,20.7,21.44,NNW,338,0.0,0.0,83,0.00,,---,0.00,VWS V14.01,2013-03-09 16:36:00,
2013-03-09 09:41:00,25.3,20.6,21.44,NNW,338,0.0,0.0,82,0.00,,---,0.00,VWS V14.01,2013-03-09 16:41:00,
2013-03-09 09:46:00,24.4,20.0,21.44,NW,315,7.2,7.2,83,0.00,,---,0.00,VWS V14.01,2013-03-09 16:46:00,
2013-03-09 09:51:00,24.1,20.5,21.44,NW,315,3.1,4.9,86,0.00,,---,0.00,VWS V14.01,2013-03-09 16:51:00,
2013-03-09 09:56:00,24.1,20.8,21.44,West,270,6.7,6.7,87,0.00,,---,0.00,VWS V14.01,2013-03-09 16:56:00,
2013-03-09 10:01:00,24.1,21.0,21.44,West,270,5.4,5.4,88,0.00,,---,0.00,VWS V14.01,2013-03-09 17:01:00,
2013-03-09 10:06:00,23.9,21.1,21.44,NW,315,7.6,7.6,89,0.00,,---,0.00,VWS V14.01,2013-03-09 17:06:00,
2013-03-09 10:11:00,23.7,21.2,21.44,NW,315,3.6,5.4,90,0.00,,---,0.00,VWS V14.01,2013-03-09 17:11:00,
2013-03-09 10:16:00,23.5,21.0,21.44,NW,315,3.6,3.6,90,0.00,,---,0.00,VWS V14.01,2013-03-09 17:16:00,
2013-03-09 10:21:00,23.7,21.2,21.44,NW,315,6.3,6.3,90,0.00,,---,0.00,VWS V14.01,2013-03-09 17:21:00,
2013-03-09 10:26:00,24.1,21.8,21.44,NW,315,0.0,3.1,91,0.00,,---,0.00,VWS V14.01,2013-03-09 17:26:00,
2013-03-09 10:31:00,24.1,21.8,21.44,NW,315,5.4,8.1,91,0.00,,---,0.00,VWS V14.01,2013-03-09 17:31:00,
2013-03-09 10:36:00,24.3,22.0,21.44,NW,315,2.2,2.2,91,0.00,,---,0.00,VWS V14.01,2013-03-09 17:36:00,
2013-03-09 10:41:00,24.4,22.2,21.44,NW,315,0.0,0.0,91,0.00,,---,0.00,VWS V14.01,2013-03-09 17:41:00,
2013-03-09 10:46:00,24.6,22.4,21.44,NW,315,3.1,4.9,91,0.00,,---,0.00,VWS V14.01,2013-03-09 17:46:00,
2013-03-09 10:52:00,25.0,22.7,21.44,NW,315,2.2,2.2,91,0.00,,---,0.00,VWS V14.01,2013-03-09 17:52:00,
2013-03-09 10:57:00,25.2,22.9,21.44,NW,315,3.6,3.6,91,0.00,,---,0.00,VWS V14.01,2013-03-09 17:57:00,
2013-03-09 11:02:00,25.0,22.5,21.44,NW,315,0.0,2.2,90,0.00,,---,0.00,VWS V14.01,2013-03-09 18:02:00,
2013-03-09 11:07:00,24.8,22.3,21.44,NW,315,4.0,4.0,90,0.00,,---,0.00,VWS V14.01,2013-03-09 18:07:00,
2013-03-09 11:12:00,24.8,22.3,21.44,NW,315,4.0,4.0,90,0.00,,---,0.00,VWS V14.01,2013-03-09 18:12:00,
2013-03-09 11:17:00,24.8,22.3,21.47,NW,315,0.0,0.0,90,0.00,,---,0.00,VWS V14.01,2013-03-09 18:17:00,
2013-03-09 11:22:00,25.0,22.2,21.47,NW,315,7.6,7.6,89,0.00,,---,0.00,VWS V14.01,2013-03-09 18:22:00,
2013-03-09 11:27:00,24.6,21.9,21.47,NW,315,5.4,5.4,89,0.00,,---,0.00,VWS V14.01,2013-03-09 18:27:00,
2013-03-09 11:32:00,25.0,22.2,21.47,NW,315,0.0,3.1,89,0.00,,---,0.00,VWS V14.01,2013-03-09 18:32:00,
2013-03-09 11:38:00,25.2,22.4,21.47,NW,315,3.6,3.6,89,0.00,,---,0.00,VWS V14.01,2013-03-09 18:38:00,
2013-03-09 11:43:00,24.8,22.0,21.47,NW,315,0.0,3.6,89,0.00,,---,0.00,VWS V14.01,2013-03-09 18:43:00,
2013-03-09 11:48:00,24.8,22.0,21.44,NW,315,4.0,4.9,89,0.00,,---,0.00,VWS V14.01,2013-03-09 18:48:00,
2013-03-09 11:53:00,24.8,22.0,21.44,NNW,338,0.0,2.7,89,0.00,,---,0.00,VWS V14.01,2013-03-09 18:53:00,
2013-03-09 11:58:00,24.8,22.0,21.44,NW,315,4.9,4.9,89,0.00,,---,0.00,VWS V14.01,2013-03-09 18:58:00,
2013-03-09 12:03:00,25.0,22.2,21.47,NW,315,4.9,4.9,89,0.00,,---,0.00,VWS V14.01,2013-03-09 19:03:00,
2013-03-09 12:08:00,25.0,22.2,21.47,NW,315,0.0,0.0,89,0.00,,---,0.00,VWS V14.01,2013-03-09 19:08:00,
2013-03-09 12:13:00,25.3,22.6,21.47,NW,315,0.0,0.0,89,0.00,,---,0.00,VWS V14.01,2013-03-09 19:13:00,
2013-03-09 12:18:00,25.3,22.6,21.44,NW,315,0.0,0.0,89,0.00,,---,0.00,VWS V14.01,2013-03-09 19:18:00,
2013-03-09 12:23:00,25.3,22.3,21.44,NW,315,5.8,5.8,88,0.00,,---,0.00,VWS V14.01,2013-03-09 19:23:00,
2013-03-09 12:28:00,24.6,21.6,21.44,NW,315,5.4,5.4,88,0.00,,---,0.00,VWS V14.01,2013-03-09 19:28:00,
2013-03-09 12:33:00,24.4,21.4,21.47,NW,315,4.0,4.0,88,0.00,,---,0.00,VWS V14.01,2013-03-09 19:33:00,
2013-03-09 12:39:00,24.4,21.4,21.47,NW,315,4.9,4.9,88,0.00,,---,0.00,VWS V14.01,2013-03-09 19:39:00,
2013-03-09 12:44:00,24.3,21.2,21.47,NW,315,4.0,5.8,88,0.00,,---,0.00,VWS V14.01,2013-03-09 19:44:00,
2013-03-09 12:49:00,24.1,21.0,21.47,NW,315,4.9,7.6,88,0.00,,---,0.00,VWS V14.01,2013-03-09 19:49:00,
2013-03-09 12:54:00,23.9,20.6,21.47,NW,315,4.9,7.2,87,0.00,,---,0.00,VWS V14.01,2013-03-09 19:54:00,
2013-03-09 12:59:00,23.9,20.9,21.47,NW,315,4.0,4.0,88,0.00,,---,0.00,VWS V14.01,2013-03-09 19:59:00,
2013-03-09 13:04:00,24.3,21.5,21.47,NW,315,5.4,5.4,89,0.00,,---,0.00,VWS V14.01,2013-03-09 20:04:00,
2013-03-09 13:09:00,24.3,21.5,21.47,NW,315,4.0,4.0,89,0.00,,---,0.00,VWS V14.01,2013-03-09 20:09:00,
2013-03-09 13:14:00,24.1,21.0,21.47,NW,315,4.0,4.0,88,0.00,,---,0.00,VWS V14.01,2013-03-09 20:14:00,
2013-03-09 13:19:00,24.1,21.0,21.47,NW,315,5.8,5.8,88,0.00,,---,0.00,VWS V14.01,2013-03-09 20:19:00,
2013-03-09 13:24:00,23.7,20.7,21.47,NW,315,3.1,3.1,88,0.00,,---,0.00,VWS V14.01,2013-03-09 20:24:00,
2013-03-09 13:29:00,24.1,21.3,21.47,NW,315,2.7,4.9,89,0.00,,---,0.00,VWS V14.01,2013-03-09 20:29:00,
2013-03-09 13:34:00,23.9,21.1,21.47,SW,225,2.7,3.1,89,0.00,,---,0.00,VWS V14.01,2013-03-09 20:34:00,
2013-03-09 13:39:00,23.7,20.7,21.47,NE,45,4.5,4.9,88,0.00,,---,0.00,VWS V14.01,2013-03-09 20:39:00,
2013-03-09 13:44:00,23.7,20.7,21.47,NW,315,3.1,5.4,88,0.00,,---,0.00,VWS V14.01,2013-03-09 20:44:00,
2013-03-09 13:50:00,23.7,20.7,21.47,NW,315,3.1,5.4,88,0.00,,---,0.00,VWS V14.01,2013-03-09 20:50:00,
2013-03-09 13:55:00,23.7,20.7,21.47,NW,315,3.1,3.6,88,0.00,,---,0.00,VWS V14.01,2013-03-09 20:55:00,
2013-03-09 14:00:00,23.7,20.7,21.47,West,270,4.9,7.6,88,0.00,,---,0.00,VWS V14.01,2013-03-09 21:00:00,
2013-03-09 14:05:00,23.7,20.7,21.47,NW,315,3.1,4.9,88,0.00,,---,0.00,VWS V14.01,2013-03-09 21:05:00,
2013-03-09 14:10:00,24.1,21.0,21.47,North,0,0.0,0.0,88,0.00,,---,0.00,VWS V14.01,2013-03-09 21:10:00,
2013-03-09 14:15:00,24.3,21.2,21.47,WNW,292,4.0,4.0,88,0.00,,---,0.00,VWS V14.01,2013-03-09 21:15:00,
2013-03-09 14:20:00,24.1,20.8,21.47,NW,315,5.4,5.4,87,0.00,,---,0.00,VWS V14.01,2013-03-09 21:20:00,
2013-03-09 14:25:00,24.1,20.5,21.47,NW,315,0.0,2.7,86,0.00,,---,0.00,VWS V14.01,2013-03-09 21:25:00,
2013-03-09 14:30:00,24.3,20.7,21.47,NW,315,0.0,0.0,86,0.00,,---,0.00,VWS V14.01,2013-03-09 21:30:00,
2013-03-09 14:35:00,24.6,21.0,21.47,NW,315,0.0,2.2,86,0.00,,---,0.00,VWS V14.01,2013-03-09 21:35:00,
2013-03-09 14:40:00,24.6,21.0,21.47,NW,315,0.0,0.0,86,0.00,,---,0.00,VWS V14.01,2013-03-09 21:40:00,
2013-03-09 14:45:00,24.4,20.6,21.47,NW,315,0.0,4.0,85,0.00,,---,0.00,VWS V14.01,2013-03-09 21:45:00,
2013-03-09 14:50:00,24.6,20.8,21.47,NW,315,0.0,3.6,85,0.00,,---,0.00,VWS V14.01,2013-03-09 21:50:00,
2013-03-09 14:55:00,25.0,21.1,21.47,NW,315,0.0,0.0,85,0.00,,---,0.00,VWS V14.01,2013-03-09 21:55:00,
2013-03-09 15:00:00,24.6,20.8,21.50,NW,315,3.6,3.6,85,0.00,,---,0.00,VWS V14.01,2013-03-09 22:00:00,
2013-03-09 15:05:00,24.4,20.6,21.50,NW,315,0.0,0.0,85,0.00,,---,0.00,VWS V14.01,2013-03-09 22:05:00,
2013-03-09 15:10:00,24.3,20.4,21.50,NW,315,0.0,2.7,85,0.00,,---,0.00,VWS V14.01,2013-03-09 22:10:00,
2013-03-09 15:15:00,24.8,20.9,21.50,NW,315,3.6,3.6,85,0.00,,---,0.00,VWS V14.01,2013-03-09 22:15:00,
2013-03-09 15:21:00,24.6,20.8,21.50,North,0,3.6,5.8,85,0.00,,---,0.00,VWS V14.01,2013-03-09 22:21:00,
2013-03-09 15:26:00,24.1,19.7,21.50,NW,315,2.2,3.1,83,0.00,,---,0.00,VWS V14.01,2013-03-09 22:26:00,
2013-03-09 15:31:00,24.1,19.7,21.50,NW,315,2.7,3.6,83,0.00,,---,0.00,VWS V14.01,2013-03-09 22:31:00,
2013-03-09 15:36:00,24.1,19.7,21.50,NW,315,0.0,0.0,83,0.00,,---,0.00,VWS V14.01,2013-03-09 22:36:00,
2013-03-09 15:41:00,23.9,19.5,21.50,NW,315,2.7,3.6,83,0.00,,---,0.00,VWS V14.01,2013-03-09 22:41:00,
2013-03-09 15:46:00,23.5,19.1,21.50,NW,315,2.2,3.6,83,0.00,,---,0.00,VWS V14.01,2013-03-09 22:46:00,
2013-03-09 15:51:00,23.5,19.1,21.50,NW,315,3.6,3.6,83,0.00,,---,0.00,VWS V14.01,2013-03-09 22:51:00,
2013-03-09 15:56:00,23.4,19.0,21.50,NW,315,4.0,5.4,83,0.00,,---,0.00,VWS V14.01,2013-03-09 22:56:00,
2013-03-09 16:01:00,23.2,18.8,21.50,NW,315,2.7,3.6,83,0.00,,---,0.00,VWS V14.01,2013-03-09 23:01:00,
2013-03-09 16:06:00,23.0,18.9,21.50,NW,315,4.0,4.0,84,0.00,,---,0.00,VWS V14.01,2013-03-09 23:06:00,
2013-03-09 16:11:00,22.6,18.8,21.50,NW,315,3.1,4.0,85,0.00,,---,0.00,VWS V14.01,2013-03-09 23:11:00,
2013-03-09 16:16:00,22.6,18.8,21.50,NW,315,3.6,3.6,85,0.00,,---,0.00,VWS V14.01,2013-03-09 23:16:00,
2013-03-09 16:21:00,22.3,18.7,21.50,NW,315,3.1,4.0,86,0.00,,---,0.00,VWS V14.01,2013-03-09 23:21:00,
2013-03-09 16:26:00,22.3,18.7,21.50,NW,315,3.1,4.0,86,0.00,,---,0.00,VWS V14.01,2013-03-09 23:26:00,
2013-03-09 16:31:00,21.9,18.4,21.53,NW,315,3.1,4.0,86,0.00,,---,0.00,VWS V14.01,2013-03-09 23:31:00,
2013-03-09 16:36:00,21.9,18.6,21.53,NW,315,2.7,4.0,87,0.00,,---,0.00,VWS V14.01,2013-03-09 23:36:00,
2013-03-09 16:41:00,21.9,18.6,21.53,NW,315,2.7,2.7,87,0.00,,---,0.00,VWS V14.01,2013-03-09 23:41:00,
2013-03-09 16:46:00,21.9,18.9,21.53,NW,315,0.0,0.0,88,0.00,,---,0.00,VWS V14.01,2013-03-09 23:46:00,
2013-03-09 16:51:00,21.9,18.9,21.53,NW,315,3.1,4.0,88,0.00,,---,0.00,VWS V14.01,2013-03-09 23:51:00,
2013-03-09 16:56:00,21.7,18.7,21.53,NW,315,2.2,3.1,88,0.00,,---,0.00,VWS V14.01,2013-03-09 23:56:00,
2013-03-09 17:01:00,21.7,18.7,21.53,NW,315,2.7,4.0,88,0.00,,---,0.00,VWS V14.01,2013-03-10 00:01:00,
2013-03-09 17:06:00,21.6,18.8,21.53,NW,315,2.7,3.1,89,0.00,,---,0.00,VWS V14.01,2013-03-10 00:06:00,
2013-03-09 17:12:00,21.6,18.8,21.53,NW,315,3.1,4.0,89,0.00,,---,0.00,VWS V14.01,2013-03-10 00:12:00,
2013-03-09 17:17:00,21.4,18.6,21.53,NW,315,3.6,5.8,89,0.00,,---,0.00,VWS V14.01,2013-03-10 00:17:00,
2013-03-09 17:22:00,21.2,18.5,21.53,North,0,4.9,4.9,89,0.00,,---,0.00,VWS V14.01,2013-03-10 00:22:00,
2013-03-09 17:27:00,20.8,18.1,21.53,NW,315,4.9,4.9,89,0.00,,---,0.00,VWS V14.01,2013-03-10 00:27:00,
2013-03-09 17:32:00,20.8,18.1,21.56,WNW,292,4.0,4.0,89,0.00,,---,0.00,VWS V14.01,2013-03-10 00:32:00,
2013-03-09 17:37:00,20.5,17.8,21.56,NW,315,0.0,5.4,89,0.00,,---,0.00,VWS V14.01,2013-03-10 00:37:00,
2013-03-09 17:42:00,20.5,17.8,21.56,NW,315,3.1,4.0,89,0.00,,---,0.00,VWS V14.01,2013-03-10 00:42:00,
2013-03-09 17:47:00,20.3,17.6,21.56,NW,315,3.6,3.6,89,0.00,,---,0.00,VWS V14.01,2013-03-10 00:47:00,
2013-03-09 17:52:00,20.3,17.6,21.56,NW,315,2.7,4.0,89,0.00,,---,0.00,VWS V14.01,2013-03-10 00:52:00,
2013-03-09 17:57:00,20.1,17.4,21.56,NW,315,3.6,4.0,89,0.00,,---,0.00,VWS V14.01,2013-03-10 00:57:00,
2013-03-09 18:02:00,19.9,17.2,21.56,NW,315,4.0,4.0,89,0.00,,---,0.00,VWS V14.01,2013-03-10 01:02:00,
2013-03-09 18:07:00,19.6,16.9,21.56,NW,315,3.1,4.9,89,0.00,,---,0.00,VWS V14.01,2013-03-10 01:07:00,
2013-03-09 18:12:00,19.4,16.7,21.56,NW,315,3.1,4.9,89,0.00,,---,0.00,VWS V14.01,2013-03-10 01:12:00,
2013-03-09 18:17:00,19.2,16.3,21.56,NW,315,4.0,4.0,88,0.00,,---,0.00,VWS V14.01,2013-03-10 01:17:00,
2013-03-09 18:22:00,19.0,16.1,21.56,WNW,292,3.6,3.6,88,0.00,,---,0.00,VWS V14.01,2013-03-10 01:22:00,
2013-03-09 18:27:00,19.0,16.1,21.56,NW,315,4.5,4.5,88,0.00,,---,0.00,VWS V14.01,2013-03-10 01:27:00,
2013-03-09 18:32:00,18.9,15.9,21.59,NW,315,2.2,4.0,88,0.00,,---,0.00,VWS V14.01,2013-03-10 01:32:00,
2013-03-09 18:37:00,18.7,15.7,21.59,NW,315,2.2,2.2,88,0.00,,---,0.00,VWS V14.01,2013-03-10 01:37:00,
2013-03-09 18:42:00,18.7,15.7,21.59,NW,315,4.9,4.9,88,0.00,,---,0.00,VWS V14.01,2013-03-10 01:42:00,
2013-03-09 18:47:00,18.5,15.3,21.59,WNW,292,4.0,4.0,87,0.00,,---,0.00,VWS V14.01,2013-03-10 01:47:00,
2013-03-09 18:52:00,18.3,15.1,21.59,NW,315,0.0,4.0,87,0.00,,---,0.00,VWS V14.01,2013-03-10 01:52:00,
2013-03-09 18:57:00,18.3,14.8,21.59,NW,315,2.7,2.7,86,0.00,,---,0.00,VWS V14.01,2013-03-10 01:57:00,
2013-03-09 19:02:00,18.1,14.4,21.59,NW,315,4.0,4.0,85,0.00,,---,0.00,VWS V14.01,2013-03-10 02:02:00,
2013-03-09 19:07:00,17.8,14.0,21.59,NW,315,3.6,3.6,85,0.00,,---,0.00,VWS V14.01,2013-03-10 02:07:00,
2013-03-09 19:12:00,17.6,13.9,21.59,NW,315,2.7,4.0,85,0.00,,---,0.00,VWS V14.01,2013-03-10 02:12:00,
2013-03-09 19:17:00,17.4,13.7,21.59,NW,315,0.0,2.7,85,0.00,,---,0.00,VWS V14.01,2013-03-10 02:17:00,
2013-03-09 19:22:00,17.1,13.3,21.59,NW,315,2.2,2.7,85,0.00,,---,0.00,VWS V14.01,2013-03-10 02:22:00,
2013-03-09 19:27:00,16.9,13.2,21.59,NW,315,2.2,3.1,85,0.00,,---,0.00,VWS V14.01,2013-03-10 02:27:00,
2013-03-09 19:32:00,16.7,13.2,21.62,NW,315,3.1,3.1,86,0.00,,---,0.00,VWS V14.01,2013-03-10 02:32:00,
2013-03-09 19:37:00,16.5,13.1,21.62,NW,315,3.6,4.0,86,0.00,,---,0.00,VWS V14.01,2013-03-10 02:37:00,
2013-03-09 19:42:00,16.3,12.9,21.62,NW,315,0.0,0.0,86,0.00,,---,0.00,VWS V14.01,2013-03-10 02:42:00,
2013-03-09 19:47:00,16.2,13.0,21.62,NW,315,0.0,0.0,87,0.00,,---,0.00,VWS V14.01,2013-03-10 02:47:00,
2013-03-09 19:52:00,16.2,13.0,21.62,NW,315,0.0,2.2,87,0.00,,---,0.00,VWS V14.01,2013-03-10 02:52:00,
2013-03-09 19:57:00,16.2,13.2,21.62,NW,315,0.0,0.0,88,0.00,,---,0.00,VWS V14.01,2013-03-10 02:57:00,
2013-03-09 20:02:00,16.0,13.1,21.62,NW,315,0.0,0.0,88,0.00,,---,0.00,VWS V14.01,2013-03-10 03:02:00,
2013-03-09 20:07:00,15.6,12.7,21.62,NW,315,0.0,0.0,88,0.00,,---,0.00,VWS V14.01,2013-03-10 03:07:00,
2013-03-09 20:12:00,15.4,12.8,21.62,NW,315,0.0,0.0,89,0.00,,---,0.00,VWS V14.01,2013-03-10 03:12:00,
2013-03-09 20:17:00,15.4,12.8,21.62,NW,315,0.0,0.0,89,0.00,,---,0.00,VWS V14.01,2013-03-10 03:17:00,
2013-03-09 20:22:00,15.6,13.0,21.62,NW,315,0.0,0.0,89,0.00,,---,0.00,VWS V14.01,2013-03-10 03:22:00,
2013-03-09 20:27:00,15.4,12.8,21.62,NW,315,0.0,0.0,89,0.00,,---,0.00,VWS V14.01,2013-03-10 03:27:00,
2013-03-09 20:32:00,15.6,13.0,21.64,NW,315,0.0,0.0,89,0.00,,---,0.00,VWS V14.01,2013-03-10 03:32:00,
2013-03-09 20:37:00,15.4,12.8,21.64,NW,315,0.0,0.0,89,0.00,,---,0.00,VWS V14.01,2013-03-10 03:37:00,
2013-03-09 20:42:00,15.4,12.8,21.64,NW,315,0.0,0.0,89,0.00,,---,0.00,VWS V14.01,2013-03-10 03:42:00,
2013-03-09 20:47:00,15.3,12.4,21.64,NW,315,0.0,0.0,88,0.00,,---,0.00,VWS V14.01,2013-03-10 03:47:00,
2013-03-09 20:52:00,15.1,12.2,21.64,NW,315,0.0,0.0,88,0.00,,---,0.00,VWS V14.01,2013-03-10 03:52:00,
2013-03-09 20:57:00,14.7,11.8,21.64,NW,315,0.0,0.0,88,0.00,,---,0.00,VWS V14.01,2013-03-10 03:57:00,
2013-03-09 21:02:00,14.4,11.2,21.64,NW,315,0.0,0.0,87,0.00,,---,0.00,VWS V14.01,2013-03-10 04:02:00,
2013-03-09 21:07:00,14.2,11.0,21.64,NW,315,0.0,0.0,87,0.00,,---,0.00,VWS V14.01,2013-03-10 04:07:00,
2013-03-09 21:12:00,13.8,10.9,21.64,NW,315,0.0,0.0,88,0.00,,---,0.00,VWS V14.01,2013-03-10 04:12:00,
2013-03-09 21:17:00,13.5,10.6,21.64,NW,315,0.0,0.0,88,0.00,,---,0.00,VWS V14.01,2013-03-10 04:17:00,
2013-03-09 21:22:00,13.1,10.2,21.64,NW,315,0.0,0.0,88,0.00,,---,0.00,VWS V14.01,2013-03-10 04:22:00,
2013-03-09 21:27:00,12.7,9.9,21.64,NW,315,0.0,0.0,88,0.00,,---,0.00,VWS V14.01,2013-03-10 04:27:00,
2013-03-09 21:32:00,12.7,9.9,21.64,NW,315,0.0,0.0,88,0.00,,---,0.00,VWS V14.01,2013-03-10 04:32:00,
2013-03-09 21:37:00,12.7,9.9,21.64,NW,315,0.0,0.0,88,0.00,,---,0.00,VWS V14.01,2013-03-10 04:37:00,
2013-03-09 21:42:00,12.7,9.9,21.64,NW,315,0.0,0.0,88,0.00,,---,0.00,VWS V14.01,2013-03-10 04:42:00,
2013-03-09 21:47:00,12.7,9.9,21.67,NW,315,0.0,0.0,88,0.00,,---,0.00,VWS V14.01,2013-03-10 04:47:00,
2013-03-09 21:52:00,12.7,9.9,21.67,NW,315,0.0,0.0,88,0.00,,---,0.00,VWS V14.01,2013-03-10 04:52:00,
2013-03-09 21:57:00,12.4,9.5,21.67,NW,315,0.0,0.0,88,0.00,,---,0.00,VWS V14.01,2013-03-10 04:57:00,
2013-03-09 22:00:00,12.4,9.5,21.67,NW,315,0.0,0.0,88,0.00,,---,0.00,VWS V14.01,2013-03-10 05:00:00,
2013-03-09 22:01:00,12.4,9.5,21.67,NW,315,0.0,0.0,88,0.00,,---,0.00,VWS V14.01,2013-03-10 05:01:00,
2013-03-09 22:04:00,12.2,9.3,21.67,NW,315,0.0,0.0,88,0.00,,---,0.00,VWS V14.01,2013-03-10 05:04:00,
2013-03-09 22:09:00,11.8,9.0,21.67,NW,315,0.0,0.0,88,0.00,,---,0.00,VWS V14.01,2013-03-10 05:09:00,
2013-03-09 22:14:00,11.5,8.6,21.67,NW,315,0.0,0.0,88,0.00,,---,0.00,VWS V14.01,2013-03-10 05:14:00,
2013-03-09 22:19:00,11.1,8.3,21.67,NW,315,0.0,0.0,88,0.00,,---,0.00,VWS V14.01,2013-03-10 05:19:00,
2013-03-09 22:24:00,10.9,8.1,21.67,NW,315,0.0,0.0,88,0.00,,---,0.00,VWS V14.01,2013-03-10 05:24:00,
2013-03-09 22:29:00,10.9,8.1,21.67,NW,315,0.0,0.0,88,0.00,,---,0.00,VWS V14.01,2013-03-10 05:29:00,
2013-03-09 22:34:00,10.8,7.9,21.67,NW,315,0.0,0.0,88,0.00,,---,0.00,VWS V14.01,2013-03-10 05:34:00,
2013-03-09 22:39:00,11.1,8.3,21.67,NW,315,0.0,0.0,88,0.00,,---,0.00,VWS V14.01,2013-03-10 05:39:00,
2013-03-09 22:44:00,11.1,8.3,21.67,NW,315,0.0,0.0,88,0.00,,---,0.00,VWS V14.01,2013-03-10 05:44:00,
2013-03-09 22:49:00,11.3,8.4,21.67,NW,315,0.0,0.0,88,0.00,,---,0.00,VWS V14.01,2013-03-10 05:49:00,
2013-03-09 22:54:00,11.3,8.4,21.67,NW,315,0.0,0.0,88,0.00,,---,0.00,VWS V14.01,2013-03-10 05:54:00,
2013-03-09 22:59:00,11.3,8.4,21.67,NW,315,0.0,0.0,88,0.00,,---,0.00,VWS V14.01,2013-03-10 05:59:00,
2013-03-09 23:05:00,11.3,8.4,21.67,NW,315,0.0,0.0,88,0.00,,---,0.00,VWS V14.01,2013-03-10 06:05:00,
2013-03-09 23:10:00,11.5,8.6,21.67,NW,315,0.0,0.0,88,0.00,,---,0.00,VWS V14.01,2013-03-10 06:10:00,
2013-03-09 23:15:00,11.7,8.8,21.67,NW,315,0.0,0.0,88,0.00,,---,0.00,VWS V14.01,2013-03-10 06:15:00,
2013-03-09 23:20:00,11.7,8.8,21.67,NW,315,0.0,0.0,88,0.00,,---,0.00,VWS V14.01,2013-03-10 06:20:00,
2013-03-09 23:25:00,11.5,8.6,21.67,NW,315,0.0,0.0,88,0.00,,---,0.00,VWS V14.01,2013-03-10 06:25:00,
2013-03-09 23:30:00,11.1,8.3,21.67,NW,315,0.0,0.0,88,0.00,,---,0.00,VWS V14.01,2013-03-10 06:30:00,
2013-03-09 23:35:00,10.6,7.7,21.67,NW,315,0.0,0.0,88,0.00,,---,0.00,VWS V14.01,2013-03-10 06:35:00,
2013-03-09 23:40:00,10.2,7.4,21.67,NW,315,0.0,0.0,88,0.00,,---,0.00,VWS V14.01,2013-03-10 06:40:00,
2013-03-09 23:45:00,10.0,7.2,21.64,NW,315,0.0,0.0,88,0.00,,---,0.00,VWS V14.01,2013-03-10 06:45:00,
2013-03-09 23:50:00,9.9,7.0,21.64,NW,315,0.0,0.0,88,0.00,,---,0.00,VWS V14.01,2013-03-10 06:50:00,
2013-03-09 23:55:00,9.5,6.7,21.64,NW,315,0.0,0.0,88,0.00,,---,0.00,VWS V14.01,2013-03-10 06:55:00,